Regional Weather Roundup
Issued by NWS

Home | Current Version | Previous Version | Graphics & Text | Print | Product List | Glossary On
Versions: 1 2 3 4 5 6 7 8 9 10 11 12 13 14 15 16 17 18 19 20 21 22 23 24 25 26 27 28 29 30 31 32 33 34 35 36 37 38 39 40 41 42 43 44 45 46 47 48 49 50
000
ASUS43 KDMX 241907
RWRIA

WEATHER ROUNDUP FOR IOWA
NATIONAL WEATHER SERVICE DES MOINES IA
100 PM CST WED DEC 24 2014

NOTE: "FAIR" INDICATES FEW OR NO CLOUDS BELOW 12,000 FEET WITH NO
SIGNIFICANT WEATHER AND/OR OBSTRUCTIONS TO VISIBILITY.

* - THESE STATIONS ARE NOT NWS STATIONS...THUS NOT UNDER NWS
QUALITY CONTROL.  THEY ALSO DO NOT REPORT WEATHER SUCH
AS PRECIPITATION OR FOG.

IAZ001>003-012>014-020>022-031>034-043>046-242000-
   NORTHWEST IOWA

CITY           SKY/WX    TMP DP  RH WIND       PRES   REMARKS
CARROLL *      CLOUDY    34  30  86 NW16      29.74F WCI  23
CHEROKEE *     CLOUDY    32  30  93 NW12      29.75F WCI  23
DENISON *      CLOUDY    30  30 100 NW14G20   29.75F WCI  20
LE MARS *      CLOUDY    28  28 100 NW8G15    29.78F WCI  20
ORANGE CITY *  CLOUDY    28  27  93 NW13      29.75F WCI  18
SHELDON *      CLOUDY    28  28 100 NW12      29.73F WCI  18
SIOUX CITY     CLOUDY    29  26  89 W10       29.79F WCI  20
SPENCER        CLOUDY    33  27  78 NW13      29.72F WCI  24
STORM LAKE *   CLOUDY    30  28  93 NW14      29.74F WCI  20
$$

IAZ055>058-069>071-079>083-090>094-242000-
   SOUTHWEST IOWA

CITY           SKY/WX    TMP DP  RH WIND       PRES   REMARKS
ATLANTIC *     CLOUDY    32  30  93 NW14      29.77F WCI  22
AUDUBON *      PTSUNNY   32  27  80 NW9       29.76F HAZE    WCI  24
CLARINDA *     CLOUDY    34  30  86 NW14      29.82F WCI  24
COUNCIL BLFS * CLOUDY    30  30 100 NW12G18   29.79F WCI  21
CRESTON *      CLOUDY    32  32 100 NW14G20   29.76F WCI  22
HARLAN  *      CLOUDY    32  32 100 NW13      29.81F WCI  22
LAMONI         CLOUDY    34  31  88 NW16      29.74F WCI  24
RED OAK *      CLOUDY    34  30  86 NW10G21   29.80F WCI  26
SHENANDOAH *   CLOUDY    34  32  93 NW14      29.82F WCI  24
$$

IAZ047>049-059>061-072>074-084-242000-
   CENTRAL IOWA

CITY           SKY/WX    TMP DP  RH WIND       PRES   REMARKS
AMES           CLOUDY    34  31  88 NW10      29.72F WCI  26
ANKENY *       MIX PCPN  36  32  87 NW12      29.72F WCI  27
CHARITON *     MIX PCPN  34  32  93 NW14G24   29.72F WCI  24
DES MOINES     CLOUDY    35  31  85 NW18G28   29.73F WCI  24
GRINNELL*      CLOUDY    36  32  87 NW16      29.68F WCI  26
KNOXVILLE *    CLOUDY    36  32  87 NW18      29.69F WCI  25
MARSHALLTOWN   CLOUDY    34  31  88 NW17      29.67F WCI  23
PELLA *        CLOUDY    36  32  87 NW17G24   29.71F WCI  25
PERRY *        CLOUDY    34  32  93 NW14      29.74F WCI  24
$$

IAZ004>006-015-016-023>025-035-036-242000-
   NORTH CENTRAL IOWA

CITY           SKY/WX    TMP DP  RH WIND       PRES   REMARKS
ALGONA *       PTSUNNY   32  32 100 NW12      29.72F WCI  23
CLARION *      CLOUDY    32  32 100 NW15G22   29.70F WCI  22
ESTHERVILLE    CLOUDY    31  29  92 NW15      29.70F WCI  20
FORT DODGE *   CLOUDY    34  28  80 NW9       29.73F WCI  26
MASON CITY     CLOUDY    33  31  92 NW17      29.69F WCI  22
FOREST CITY *  CLOUDY    34  32  93 NW12      29.68F WCI  25
IOWA FALLS *   CLOUDY    34  32  93 NW16      29.69F WCI  23
$$

IAZ007>011-017>019-026>030-037>042-050>054-066-242000-
   NORTHEAST IOWA

CITY           SKY/WX    TMP DP  RH WIND       PRES   REMARKS
CEDAR RAPIDS   CLOUDY    35  33  92 NW14      29.61F WCI  26
CHARLES CITY * CLOUDY    34  34 100 NW16      29.65F WCI  23
CLINTON *      CLOUDY    36  30  80 NW12      29.59F WCI  27
DECORAH *      CLOUDY    34  32  93 NW14      29.59F WCI  24
DUBUQUE        CLOUDY    34  32  92 NW13      29.56F WCI  25
MONTICELLO *   CLOUDY    36  34  93 NW12      29.59F WCI  27
OELWEIN *      CLOUDY    36  32  87 NW16G22   29.61F WCI  26
WATERLOO       CLOUDY    36  33  89 NW14      29.64F WCI  27
$$

IAZ064-065-067-068-078-242000-
   EAST CENTRAL IOWA

CITY           SKY/WX    TMP DP  RH WIND       PRES   REMARKS
DAVENPORT      CLOUDY    35  31  85 NW13      29.58F WCI  26
IOWA CITY      CLOUDY    37  31  78 NW13      29.64F WCI  29
MT. PLEASANT * CLOUDY    36  32  87 W12       29.65F WCI  27
MUSCATINE *    CLOUDY    37  32  81 W15       29.62F WCI  28
QUAD CITIES    CLOUDY    36  32  85 NW13G21   29.58F WCI  27
$$

IAZ062-063-075>077-085>089-095>099-242000-
   SOUTHEAST IOWA

CITY           SKY/WX    TMP DP  RH WIND       PRES   REMARKS
BURLINGTON     CLOUDY    36  33  89 NW12      29.62F WCI  28
FAIRFIELD *    CLOUDY    37  32  81 NW14      29.65F WCI  29
FORT MADISON * CLOUDY    37  36  93 W13       29.64F FOG     WCI  29
KEOKUK *       CLOUDY    36  34  93 NW9G15    29.64F WCI  29
OSKALOOSA *    CLOUDY    36  32  87 NW16G23   29.67F WCI  26
CENTERVILLE *  CLOUDY    36  34  93 NW15      29.71F WCI  26
OTTUMWA        MIX PCPN  35  33  92 NW18      29.66F WCI  24
WASHINGTON *   CLOUDY    37  36  93 NW14G21   29.64F WCI  29
$$

ABBREVIATIONS USED IN REMARKS
   TC - TEMPERATURES IN CELSIUS
  WCI - WIND CHILL INDEX
   HX - HEAT INDEX
  VSB - VISIBILITY
$$




USA.gov is the U.S. government's official web portal to all federal, state and local government web resources and services.